| time (UTC) | temp F | wind direction | speed MPH | gust MPH | rain 1hr in | rain 24hr in | rain mn in | humidity % | barometer mb |
| 20260507163017 | 58 | 316 | 0.0 | 8.0 | 0.00 | 0.40 | 0.40 | 44 | 1010.9 |
| 20260507161510 | 58 | 321 | 3.0 | 9.0 | 0.00 | 0.40 | 0.40 | 47 | 1011.1 |
| 20260507160010 | 57 | 301 | 1.0 | 9.0 | 0.00 | 0.41 | 0.40 | 47 | 1011.2 |
| 20260507154511 | 57 | 304 | 1.0 | 10.0 | 0.00 | 0.41 | 0.40 | 45 | 1011.3 |
| 20260507153008 | 57 | 328 | 1.0 | 7.0 | 0.00 | 0.41 | 0.40 | 50 | 1011.5 |
| 20260507151506 | 56 | 339 | 1.0 | 11.0 | 0.00 | 0.41 | 0.40 | 51 | 1011.8 |
| 20260507150003 | 56 | 321 | 2.0 | 8.0 | 0.00 | 0.63 | 0.40 | 49 | 1012.0 |
| 20260507144502 | 0 | 0.0 | 0.0 | 0.00 | 0.63 | 0.40 | 1012.2 | ||
| 20260507143119 | 55 | 333 | 0.0 | 8.0 | 0.00 | 0.63 | 0.40 | 53 | 1012.3 |
| 20260507141604 | 55 | 24 | 2.0 | 8.0 | 0.00 | 0.63 | 0.40 | 51 | 1012.6 |
| 20260507140057 | 54 | 290 | 0.0 | 4.0 | 0.00 | 0.76 | 0.40 | 55 | 1012.7 |
| 20260507134555 | 53 | 316 | 0.0 | 4.0 | 0.00 | 0.76 | 0.40 | 59 | 1012.8 |
| 20260507133055 | 52 | 319 | 0.0 | 5.0 | 0.00 | 0.76 | 0.40 | 57 | 1013.0 |
| 20260507131601 | 52 | 314 | 2.0 | 8.0 | 0.00 | 0.76 | 0.40 | 57 | 1012.8 |
| 20260507130055 | 52 | 326 | 2.0 | 6.0 | 0.00 | 0.81 | 0.40 | 58 | 1012.6 |
| 20260507124602 | 52 | 27 | 2.0 | 6.0 | 0.00 | 0.81 | 0.40 | 58 | 1012.7 |
| 20260507123053 | 52 | 347 | 0.0 | 6.0 | 0.00 | 0.81 | 0.40 | 59 | 1012.9 |
| 20260507121552 | 52 | 314 | 0.0 | 5.0 | 0.00 | 0.81 | 0.40 | 61 | 1012.8 |
| 20260507120052 | 51 | 298 | 1.0 | 4.0 | 0.00 | 0.85 | 0.40 | 60 | 1012.8 |
| 20260507114606 | 51 | 49 | 0.0 | 5.0 | 0.00 | 0.85 | 0.40 | 62 | 1012.7 |
| 20260507113105 | 50 | 28 | 2.0 | 5.0 | 0.00 | 0.85 | 0.40 | 60 | 1012.5 |
| 20260507111550 | 50 | 302 | 0.0 | 3.0 | 0.00 | 0.85 | 0.40 | 60 | 1012.5 |
| 20260507110045 | 50 | 293 | 1.0 | 4.0 | 0.00 | 0.85 | 0.40 | 57 | 1012.3 |
| 20260507104544 | 50 | 349 | 1.0 | 5.0 | 0.00 | 0.85 | 0.40 | 57 | 1012.0 |
| 20260507103049 | 50 | 333 | 1.0 | 5.0 | 0.00 | 0.85 | 0.40 | 57 | 1011.7 |
| 20260507101542 | 50 | 313 | 1.0 | 5.0 | 0.00 | 0.85 | 0.40 | 57 | 1011.5 |
| 20260507100038 | 50 | 310 | 2.0 | 6.0 | 0.00 | 0.85 | 0.40 | 56 | 1011.3 |
| 20260507094541 | 50 | 316 | 1.0 | 5.0 | 0.00 | 0.85 | 0.40 | 57 | 1011.3 |
| 20260507093036 | 51 | 279 | 1.0 | 5.0 | 0.00 | 0.85 | 0.40 | 56 | 1011.0 |
| 20260507091536 | 0 | 0.0 | 0.0 | 0.00 | 0.85 | 0.40 | 1010.8 | ||
| 20260507090029 | 51 | 311 | 0.0 | 6.0 | 0.00 | 0.85 | 0.40 | 64 | 1010.6 |
| 20260507084539 | 51 | 329 | 3.0 | 9.0 | 0.00 | 0.85 | 0.40 | 63 | 1010.6 |
| 20260507083027 | 51 | 301 | 4.0 | 8.0 | 0.00 | 0.85 | 0.40 | 65 | 1010.6 |
| 20260507081535 | 52 | 313 | 3.0 | 6.0 | 0.00 | 0.85 | 0.40 | 66 | 1010.8 |
| 20260507080025 | 0 | 0.0 | 0.0 | 0.00 | 0.85 | 0.40 | 1010.6 | ||
| 20260507074523 | 0 | 0.0 | 0.0 | 0.00 | 0.85 | 0.40 | 1010.8 | ||
| 20260507073020 | 0 | 0.0 | 0.0 | 0.00 | 0.85 | 0.40 | 1010.8 | ||
| 20260507071515 | 0 | 0.0 | 0.0 | 0.00 | 0.85 | 0.40 | 1010.9 | ||
| 20260507070013 | 53 | 293 | 0.0 | 3.0 | 0.00 | 0.85 | 0.40 | 74 | 1011.0 |
| 20260507064509 | 53 | 3 | 0.0 | 3.0 | 0.00 | 0.85 | 0.40 | 75 | 1010.9 |
| 20260507063008 | 53 | 295 | 1.0 | 5.0 | 0.00 | 0.85 | 0.40 | 79 | 1010.9 |
| 20260507061504 | 0 | 0.0 | 0.0 | 0.00 | 0.85 | 0.40 | 1010.9 | ||
| 20260507060104 | 53 | 338 | 1.0 | 4.0 | 0.00 | 0.85 | 0.40 | 83 | 1010.8 |
| 20260507054500 | 53 | 309 | 1.0 | 5.0 | 0.00 | 0.85 | 0.40 | 84 | 1010.8 |
| 20260507053100 | 53 | 302 | 0.0 | 3.0 | 0.39 | 0.85 | 0.40 | 85 | 1010.4 |
| 20260507051600 | 53 | 321 | 1.0 | 5.0 | 0.40 | 0.85 | 0.40 | 85 | 1010.6 |
| 20260507050058 | 53 | 312 | 2.0 | 5.0 | 0.40 | 0.85 | 0.40 | 86 | 1010.5 |
| 20260507044610 | 53 | 297 | 2.0 | 9.0 | 0.40 | 0.85 | 0.40 | 86 | 1010.7 |
| 20260507043104 | 54 | 353 | 1.0 | 4.0 | 0.40 | 0.85 | 0.40 | 85 | 1010.6 |
| 20260507041556 | 54 | 314 | 6.0 | 12.0 | 0.00 | 0.45 | 0.00 | 85 | 1010.4 |
| 20260507040049 | 55 | 297 | 6.0 | 13.0 | 0.00 | 0.45 | 0.45 | 82 | 1010.5 |
| 20260507034546 | 55 | 311 | 3.0 | 7.0 | 0.00 | 0.45 | 0.45 | 82 | 1010.2 |
| 20260507033045 | 55 | 344 | 1.0 | 5.0 | 0.00 | 0.45 | 0.45 | 82 | 1010.5 |
| 20260507031546 | 0 | 0.0 | 0.0 | 0.00 | 0.45 | 0.45 | 1009.8 | ||
| 20260507030037 | 57 | 4 | 0.0 | 6.0 | 0.00 | 0.45 | 0.45 | 80 | 1010.2 |
| 20260507024535 | 57 | 160 | 2.0 | 8.0 | 0.00 | 0.45 | 0.45 | 78 | 1010.1 |
| 20260507023035 | 57 | 316 | 3.0 | 10.0 | 0.00 | 0.45 | 0.45 | 78 | 1010.1 |
| 20260507021530 | 58 | 342 | 4.0 | 10.0 | 0.00 | 0.45 | 0.45 | 79 | 1009.9 |
| 20260507020044 | 58 | 312 | 6.0 | 13.0 | 0.00 | 0.45 | 0.45 | 78 | 1009.7 |
| 20260507014531 | 59 | 311 | 4.0 | 10.0 | 0.00 | 0.45 | 0.45 | 78 | 1009.9 |
| 20260507013028 | 59 | 302 | 3.0 | 8.0 | 0.00 | 0.45 | 0.45 | 77 | 1010.0 |
| 20260507011539 | 60 | 281 | 3.0 | 11.0 | 0.00 | 0.45 | 0.45 | 1009.9 | |
| 20260507010024 | 0 | 0.0 | 0.0 | 0.00 | 0.45 | 0.45 | 1009.4 | ||
| 20260507004518 | 60 | 276 | 1.0 | 10.0 | 0.00 | 0.45 | 0.45 | 79 | 1009.2 |
| 20260507003018 | 61 | 318 | 4.0 | 8.0 | 0.00 | 0.45 | 0.45 | 78 | 1009.3 |
| 20260507001543 | 61 | 285 | 5.0 | 9.0 | 0.00 | 0.45 | 0.45 | 78 | 1008.8 |
| 20260507000015 | 61 | 350 | 5.0 | 11.0 | 0.00 | 0.45 | 0.45 | 79 | 1008.3 |
| 20260506234515 | 61 | 287 | 2.0 | 6.0 | 0.00 | 0.45 | 0.45 | 84 | 1007.9 |
| 20260506233017 | 62 | 310 | 5.0 | 11.0 | 0.00 | 0.45 | 0.45 | 84 | 1007.5 |
| 20260506231517 | 63 | 293 | 5.0 | 11.0 | 0.00 | 0.45 | 0.45 | 86 | 1007.6 |
| 20260506230014 | 64 | 291 | 4.0 | 11.0 | 0.00 | 0.45 | 0.45 | 88 | 1007.5 |
| 20260506224509 | 65 | 310 | 2.0 | 5.0 | 0.00 | 0.45 | 0.45 | 88 | 1007.2 |
| 20260506223010 | 65 | 217 | 0.0 | 5.0 | 0.00 | 0.45 | 0.45 | 88 | 1007.1 |
| 20260506221510 | 65 | 315 | 0.0 | 3.0 | 0.00 | 0.45 | 0.45 | 87 | 1006.9 |
| 20260506220009 | 66 | 324 | 1.0 | 5.0 | 0.00 | 0.45 | 0.45 | 86 | 1006.9 |
| 20260506214509 | 66 | 213 | 1.0 | 6.0 | 0.00 | 0.45 | 0.45 | 88 | 1006.7 |
| 20260506213008 | 66 | 196 | 3.0 | 7.0 | 0.00 | 0.45 | 0.45 | 87 | 1006.4 |
| 20260506211508 | 66 | 230 | 3.0 | 7.0 | 0.00 | 0.45 | 0.45 | 87 | 1006.3 |
| 20260506210009 | 67 | 209 | 2.0 | 6.0 | 0.00 | 0.45 | 0.45 | 86 | 1006.3 |
| 20260506204508 | 67 | 217 | 0.0 | 5.0 | 0.00 | 0.45 | 0.45 | 83 | 1006.3 |
| 20260506203009 | 0 | 0.0 | 0.0 | 0.00 | 0.45 | 0.45 | 1006.2 | ||
| 20260506201601 | 0 | 176 | 6.0 | 0.0 | 0.00 | 0.45 | 0.45 | 1006.2 | |
| 20260506201501 | 0 | 176 | 6.0 | 0.0 | 0.00 | 0.45 | 0.45 | 1006.2 | |
| 20260506194600 | 66 | 56 | 1.0 | 5.0 | 0.00 | 0.45 | 0.45 | 86 | 1006.3 |
| 20260506193101 | 0 | 0.0 | 0.0 | 0.00 | 0.45 | 0.45 | 1006.4 | ||
| 20260506191548 | 0 | 308 | 4.0 | 0.0 | 0.00 | 0.45 | 0.45 | 1006.4 | |
| 20260506190048 | 64 | 261 | 1.0 | 5.0 | 0.00 | 0.45 | 0.45 | 89 | 1006.5 |
| 20260506184547 | 64 | 43 | 0.0 | 4.0 | 0.00 | 0.45 | 0.45 | 90 | 1006.6 |
| 20260506183045 | 63 | 174 | 0.0 | 6.0 | 0.00 | 0.45 | 0.45 | 90 | 1006.8 |
| 20260506181549 | 63 | 330 | 0.0 | 4.0 | 0.00 | 0.45 | 0.45 | 91 | 1006.9 |
| 20260506180040 | 62 | 248 | 1.0 | 8.0 | 0.00 | 0.45 | 0.45 | 92 | 1006.9 |
| 20260506174541 | 62 | 146 | 1.0 | 8.0 | 0.00 | 0.45 | 0.45 | 92 | 1007.0 |
| 20260506173045 | 61 | 338 | 1.0 | 8.0 | 0.00 | 0.45 | 0.45 | 91 | 1007.0 |
| 20260506171541 | 61 | 259 | 3.0 | 8.0 | 0.00 | 0.45 | 0.45 | 91 | 1006.9 |
| 20260506170046 | 61 | 165 | 2.0 | 7.0 | 0.00 | 0.45 | 0.45 | 92 | 1007.0 |
| 20260506164554 | 61 | 159 | 3.0 | 10.0 | 0.00 | 0.45 | 0.45 | 92 | 1006.9 |